Weather History for Vero Beach, FL

Change the Weather History Date:

Thursday, November 22, 2012

  Actual Average Record
Temperature  
Mean Temperature 63 °F 69 °F  
Max Temperature 71 °F 78 °F 87 °F (1948)
Min Temperature 54 °F 60 °F 37 °F (2006)
Degree Days  
Heating Degree Days 2 1  
Month to date heating degree days 22 14  
Since 1 July heating degree days 39 17  
Cooling Degree Days 0 5  
Month to date cooling degree days 63 144  
Year to date cooling degree days 3408 3272  
Growing Degree Days 12 (Base 50)    
Moisture  
Dew Point 48 °F    
Average Humidity 65    
Maximum Humidity 83    
Minimum Humidity 47    
Precipitation  
Precipitation 0.00 in 0.10 in 1.77 in (1984)
Month to date precipitation 0.85 2.50  
Year to date precipitation 46.39 48.90  
Sea Level Pressure  
Sea Level Pressure 30.08 in    
Wind  
Wind Speed 15 mph (NW)    
Max Wind Speed 26 mph    
Max Gust Speed 37 mph    
Visibility 10 miles    
Events      
T = Trace of Precipitation, MM = Missing Value Source: NWS Daily Summary

Daily Weather History Graph

Daily Weather History Graph

Search for Another Location

Airport:

Trip Planner

Search our weather history database for the weather conditions in past years. The results will help you decide how hot, cold, wet, or windy it might be!

Date:

Astronomy

Nov. 22, 2012 Rise Set
Actual Time 6:48 AM EST 5:27 PM EST
Civil Twilight 6:23 AM EST 5:52 PM EST
Nautical Twilight 5:54 AM EST 6:20 PM EST
Astronomical Twilight 5:26 AM EST 6:48 PM EST
Moon 1:48 PM EST (11/22) 1:33 AM EST (11/22)
Length of Visible Light 11h 28m
Length of Day
10h 38m
Waxing Gibbous, 71% of the Moon is Illuminated
Nov 22
Waxing Gibbous
Nov 28
Full
Dec 6
Last Quarter
Dec 13
New
Dec 20
First Quarter

Hourly Weather History & Observations

Time (EST) Temp. Dew Point Humidity Pressure Visibility Wind Dir Wind Speed Gust Speed Precip Events Conditions
12:53 AM 55.9 °F 46.9 °F 72% 30.04 in 10.0 mi NW 9.2 mph - N/A   Clear
1:53 AM 55.9 °F 48.9 °F 77% 30.03 in 10.0 mi NW 11.5 mph - N/A   Clear
2:53 AM 55.9 °F 48.9 °F 77% 30.02 in 10.0 mi NW 10.4 mph - N/A   Clear
3:53 AM 54.0 °F 48.9 °F 83% 30.03 in 10.0 mi NW 9.2 mph - N/A   Clear
4:53 AM 55.0 °F 48.9 °F 80% 30.02 in 10.0 mi NW 12.7 mph - N/A   Clear
5:53 AM 54.0 °F 48.0 °F 80% 30.03 in 10.0 mi NW 10.4 mph - N/A   Clear
6:53 AM 55.0 °F 48.0 °F 77% 30.05 in 10.0 mi NW 11.5 mph - N/A   Clear
7:53 AM 57.0 °F 48.9 °F 74% 30.06 in 10.0 mi NW 12.7 mph - N/A   Clear
8:53 AM 62.1 °F 50.0 °F 65% 30.08 in 10.0 mi NW 16.1 mph - N/A   Clear
9:53 AM 66.9 °F 52.0 °F 59% 30.09 in 10.0 mi NNW 15.0 mph 23.0 mph N/A   Clear
10:53 AM 70.0 °F 48.9 °F 47% 30.09 in 10.0 mi NNW 20.7 mph 28.8 mph N/A   Clear
11:53 AM 70.0 °F 51.1 °F 51% 30.09 in 10.0 mi NNW 19.6 mph 32.2 mph N/A   Clear
12:53 PM 69.1 °F 52.0 °F 54% 30.07 in 10.0 mi North 24.2 mph 31.1 mph N/A   Clear
1:53 PM 69.1 °F 50.0 °F 51% 30.06 in 10.0 mi North 21.9 mph 33.4 mph N/A   Partly Cloudy
2:53 PM 68.0 °F 50.0 °F 52% 30.06 in 10.0 mi NNW 23.0 mph 32.2 mph N/A   Clear
3:53 PM 66.9 °F 48.0 °F 51% 30.07 in 10.0 mi NNW 19.6 mph 26.5 mph N/A   Clear
4:53 PM 64.0 °F 48.0 °F 56% 30.09 in 10.0 mi NNW 19.6 mph 25.3 mph N/A   Clear
5:53 PM 61.0 °F 48.0 °F 62% 30.10 in 10.0 mi NW 11.5 mph - N/A   Partly Cloudy
6:53 PM 59.0 °F 48.0 °F 67% 30.11 in 10.0 mi NNW 11.5 mph - N/A   Clear
7:53 PM 57.0 °F 46.9 °F 69% 30.13 in 10.0 mi NW 11.5 mph - N/A   Clear
8:53 PM 55.9 °F 46.0 °F 69% 30.14 in 10.0 mi WNW 11.5 mph - N/A   Clear
9:53 PM 55.0 °F 45.0 °F 69% 30.14 in 10.0 mi WNW 11.5 mph - N/A   Clear
10:53 PM 54.0 °F 45.0 °F 72% 30.14 in 10.0 mi NW 12.7 mph - N/A   Clear
11:53 PM 54.0 °F 45.0 °F 72% 30.14 in 10.0 mi NW 11.5 mph - N/A   Clear